,

(GMT )
Manston

Weather History for EGMH - January, 2013

Change the Weather History Date:

Tuesday, January 29, 2013

  Actual Average Record
Temperature  
Mean Temperature 52 °F -  
Max Temperature 54 °F - - ()
Min Temperature 50 °F - - ()
Degree Days  
Heating Degree Days 13    
Growing Degree Days 2 (Base 50)    
Moisture  
Dew Point 50 °F    
Average Humidity 91    
Maximum Humidity 100    
Minimum Humidity 78    
Precipitation  
Precipitation 0.01 in - - ()
Sea Level Pressure  
Sea Level Pressure 29.66 in    
Wind  
Wind Speed 17 mph ()    
Max Wind Speed 29 mph    
Max Gust Speed 40 mph    
Visibility 5.8 miles    
Events Rain    
T = Trace of Precipitation, MM = Missing Value Source: Averaged Metar Reports

Daily Weather History Graph

Daily Weather History Graph

Search for Another Location

Airport or City:

Astronomy

Jan. 29, 2013 Rise Set
Actual Time 7:36 AM GMT 4:39 PM GMT
Civil Twilight 7:00 AM GMT 5:15 PM GMT
Nautical Twilight 6:19 AM GMT 5:56 PM GMT
Astronomical Twilight 5:40 AM GMT 6:35 PM GMT
Moon 7:45 PM GMT (1/29) 8:03 AM GMT (1/29)
Length of Visible Light 10h 15m
Length of Day
9h 02m
Waning Gibbous, 95% of the Moon is Illuminated
Jan 29
Waning Gibbous
Feb 3
Last Quarter
Feb 10
New
Feb 17
First Quarter
Feb 25
Full

Hourly Weather History & Observations

Time (GMT) Temp. Dew Point Humidity Pressure Visibility Wind Dir Wind Speed Gust Speed Precip Events Conditions
2:50 AM 51 °F 46 °F 78% 29.67 in 7 mi WSW 20.7 mph - -   Overcast
2:50 AM 51.8 °F 46.4 °F 82% 29.65 in 6.2 mi WSW 18.4 mph - N/A   Partly Cloudy
3:20 AM 51.8 °F 46.4 °F 82% 29.65 in 6.2 mi SW 18.4 mph - N/A   Partly Cloudy
3:50 AM 50.0 °F 46.4 °F 87% 29.65 in 6.2 mi WSW 17.3 mph - N/A   Partly Cloudy
5:50 AM 50 °F 46 °F 82% 29.66 in 25 mi WSW 17.3 mph - - Rain Rain
7:20 AM 51.8 °F 48.2 °F 88% 29.65 in 6.2 mi SW 15.0 mph - N/A   Overcast
7:50 AM 51.8 °F 50.0 °F 94% 29.65 in 6.2 mi SW 11.5 mph - N/A   Overcast
8:20 AM 51.8 °F 50.0 °F 94% 29.68 in 6.2 mi SW 12.7 mph - N/A   Overcast
8:50 AM 53 °F 49 °F 84% 29.69 in 31 mi WSW 15.0 mph - -   Overcast
8:50 AM 53.6 °F 50.0 °F 88% 29.68 in 6.2 mi WSW 13.8 mph - N/A   Overcast
9:20 AM 51.8 °F 50.0 °F 94% 29.68 in 3.7 mi SW 13.8 mph - N/A   Overcast
9:50 AM 51.8 °F 50.0 °F 94% 29.68 in 6.2 mi SW 10.4 mph - N/A   Mostly Cloudy
10:20 AM 51.8 °F 50.0 °F 94% 29.68 in 6.2 mi SW 15.0 mph - N/A   Mostly Cloudy
10:50 AM 51.8 °F 51.8 °F 100% 29.68 in 5.0 mi SW 17.3 mph - N/A   Mostly Cloudy
11:20 AM 53.6 °F 51.8 °F 94% 29.68 in 5.0 mi SW 19.6 mph - N/A   Mostly Cloudy
11:50 AM 54 °F 52 °F 89% 29.69 in 28 mi SW 19.6 mph - - Rain Rain
11:50 AM 53.6 °F 51.8 °F 94% 29.68 in 6.2 mi SW 20.7 mph - N/A   Mostly Cloudy
12:20 PM 53.6 °F 51.8 °F 94% 29.65 in 6.2 mi SW 18.4 mph - N/A   Mostly Cloudy
12:50 PM 53.6 °F 51.8 °F 94% 29.68 in 6.2 mi SSW 18.4 mph - N/A   Mostly Cloudy
1:20 PM 53.6 °F 51.8 °F 94% 29.65 in 6.2 mi SW 20.7 mph - N/A   Mostly Cloudy
1:50 PM 53.6 °F 51.8 °F 94% 29.65 in 6.2 mi SW 19.6 mph - N/A   Mostly Cloudy
2:20 PM 53.6 °F 51.8 °F 94% 29.65 in 6.2 mi SW 19.6 mph - N/A   Mostly Cloudy
2:50 PM 54 °F 51 °F 87% 29.67 in 25 mi SW 25.3 mph - -   Overcast
2:50 PM 53.6 °F 51.8 °F 94% 29.65 in 6.2 mi SW 23.0 mph - N/A   Mostly Cloudy
3:20 PM 53.6 °F 51.8 °F 94% 29.65 in 6.2 mi SW 24.2 mph 36.8 mph N/A   Mostly Cloudy
3:50 PM 53.6 °F 51.8 °F 94% 29.65 in 6.2 mi SW 21.9 mph 33.4 mph N/A   Mostly Cloudy
4:20 PM 55.4 °F 51.8 °F 88% 29.65 in 6.2 mi SW 21.9 mph - N/A   Mostly Cloudy
4:50 PM 53.6 °F 51.8 °F 94% 29.65 in 4.3 mi SW 26.5 mph 38.0 mph N/A   Mostly Cloudy
5:20 PM 53.6 °F 51.8 °F 94% 29.65 in 4.3 mi SW 28.8 mph 40.3 mph N/A   Mostly Cloudy
5:50 PM 54 °F 51 °F 88% 29.68 in 8 mi SW 26.5 mph - -   Overcast
5:50 PM 53.6 °F 51.8 °F 94% 29.65 in 4.3 mi SW 25.3 mph 39.1 mph N/A   Mostly Cloudy
6:20 PM 53.6 °F 51.8 °F 94% 29.68 in 5.6 mi SW 21.9 mph - N/A   Mostly Cloudy
8:50 PM 53 °F 51 °F 91% 29.66 in 4 mi SSW 21.9 mph - - Rain Rain
11:50 PM 52 °F 51 °F 93% 29.65 in 4 mi SSW 19.6 mph - - Rain Rain